Regional Weather Roundup
Issued by NWS

Home | Current Version | Previous Version | Text Only | Print | Product List | Glossary Off
Versions: 1 2 3 4 5 6 7 8 9 10 11 12 13 14 15 16 17 18 19 20 21 22 23 24 25 26 27 28 29 30 31 32 33 34 35 36 37 38 39 40 41 42 43 44 45 46 47 48 49 50

000
ASUS43 KOAX 272010
RWRNE

WEATHER ROUNDUP FOR NEBRASKA
NATIONAL WEATHER SERVICE OMAHA NE
200 PM CST MON FEB 27 2017

NOTES: SATELLITE DATA IS BEING USED TO AUGMENT CLOUD COVER ABOVE
       12000 FEET.
       "FAIR" INDICATES FEW OR NO CLOUDS BELOW 12,000 FEET WITH NO
       SIGNIFICANT WEATHER AND/OR OBSTRUCTIONS TO VISIBILITY.

  * THESE STATIONS DO NOT REPORT WEATHER SUCH AS RAIN...SNOW OR FOG.

NEZ001>004-019>022-054>056-272100-
NEBRASKA PANHANDLE

CITY           SKY/WX    TMP DP  RH WIND       PRES   REMARKS
SCOTTSBLUFF    PTSUNNY   36  18  48 E6        29.59F WCI  31
ALLIANCE       CLOUDY    33  23  66 CALM      29.59F
CHADRON        CLOUDY    36  18  48 CALM      29.59F
KIMBALL        SUNNY     46  25  44 S16       29.57F
SIDNEY         SUNNY     50  17  27 S22       29.59F
$$

NEZ057>060-069>072-079>082-272100-
SOUTHWEST NEBRASKA

CITY           SKY/WX    TMP DP  RH WIND       PRES   REMARKS
NORTH PLATTE   SUNNY     49  28  44 S17       29.67F
IMPERIAL       SUNNY     49  23  36 S12       29.64F
LEXINGTON      SUNNY     50  31  48 S18G24    29.69F
MCCOOK         SUNNY     50  28  42 SE8       29.68F
OGALLALA       SUNNY     46  28  50 S7        29.65F
$$

NEZ005>010-023>029-035>040-094-272100-
NORTH CENTRAL NEBRASKA

CITY           SKY/WX    TMP DP  RH WIND       PRES   REMARKS
VALENTINE      SUNNY     39  27  62 SW10      29.67F WCI  32
AINSWORTH      SUNNY     41  31  67 S17G23    29.67F
BROKEN BOW     SUNNY     46  31  55 S20       29.69F
O`NEILL        CLOUDY    43  28  56 S16       29.72F
ORD            SUNNY     48  28  46 S13G24    29.72F
THEDFORD       SUNNY     45  31  58 S14       29.66F
$$

NEZ041-046>049-061>064-073>077-083>087-272100-
SOUTH CENTRAL NEBRASKA

CITY           SKY/WX    TMP DP  RH WIND       PRES   REMARKS
GRAND ISLAND   SUNNY     51  32  48 S20G28    29.76F
AURORA         MOSUNNY   52  32  45 S20G28    29.77F
HASTINGS       MOSUNNY   53  33  46 S17G26    29.75F
HEBRON         CLOUDY    56  37  48 S17       29.76F
HOLDREGE       SUNNY     51  30  43 S18G26    29.71F
KEARNEY *      MOSUNNY   54  30  40 S22G28    29.73F
YORK           CLOUDY    52  32  46 S18G26    29.78F
$$

NEZ011>018-030>034-042>045-272100-
NORTHEAST NEBRASKA

CITY           SKY/WX    TMP DP  RH WIND       PRES   REMARKS
NORFOLK        SUNNY     46  26  45 S17       29.79F
ALBION         MOSUNNY   48  26  42 S17       29.77F
BLAIR          PTSUNNY   50  30  46 SE12G20   29.84F
FREMONT        CLOUDY    50  26  39 SE17G28   29.83F
TEKAMAH        MOSUNNY   47  35  63 SE12      29.86F
WAYNE          MOSUNNY   42  31  66 SE13      29.81F
$$

NEZ050>053-065>068-078-088>093-272100-
SOUTHEAST NEBRASKA

CITY           SKY/WX    TMP DP  RH WIND       PRES   REMARKS
LINCOLN        CLOUDY    56  25  30 S23G30    29.81F
OMAHA EPPLEY   PTSUNNY   53  27  36 SE17      29.86F
BEATRICE       CLOUDY    56  34  43 SE18G25   29.80F
FALLS CITY     CLOUDY    55  30  38 S13G23    29.86F
NEBRASKA CITY  MOSUNNY   55  14  19 S22       29.86F
PLATTSMOUTH    CLOUDY    55  20  25 SE16G25   29.85F
$$

NEZ044-045-051>053-067-272100-
OMAHA AREA

CITY           SKY/WX    TMP DP  RH WIND       PRES   REMARKS
OMAHA EPPLEY   PTSUNNY   53  27  36 SE17      29.86F
BLAIR          PTSUNNY   50  30  46 SE12G20   29.84F
FREMONT        CLOUDY    50  26  39 SE17G28   29.83F
MILLARD        MOSUNNY   54  30  40 SE18      29.85F
OFFUTT AFB     PTSUNNY   53  28  37 S12       29.85F
PLATTSMOUTH    CLOUDY    55  20  25 SE16G25   29.85F
WAHOO          FAIR      51  30  45 S18       29.83F
$$



USA.gov is the U.S. government's official web portal to all federal, state and local government web resources and services.